Change the Weather History Date:

Thursday, December 8, 2011

  Actual Average Record
Temperature  
Mean Temperature 34 °F 39 °F  
Max Temperature 46 °F 49 °F 76 °F (1991)
Min Temperature 21 °F 28 °F 6 °F (2005)
Degree Days  
Heating Degree Days 32 26  
Month to date heating degree days 201  
Since 1 July heating degree days 1030  
Moisture  
Dew Point 23 °F    
Average Humidity 75    
Maximum Humidity 96    
Minimum Humidity 42    
Precipitation  
Precipitation 0.00 in 0.12 in 0.86 in (1956)
Month to date precipitation 0.95  
Year to date precipitation 46.22  
Sea Level Pressure  
Sea Level Pressure 30.25 in    
Wind  
Wind Speed 2 mph (South)    
Max Wind Speed 10 mph    
Max Gust Speed -    
Visibility 10 miles    
Events      
T = Trace of Precipitation, MM = Missing Value Source: NWS Daily Summary

Daily Weather History Graph

Daily Weather History Graph

Search for Another Location

Airport or City:

Trip Planner

Search our weather history database for the weather conditions in past years. The results will help you decide how hot, cold, wet, or windy it might be!

Date:

Astronomy

Dec. 08, 2011 Rise Set
Actual Time 7:14 AM CST 5:02 PM CST
Civil Twilight 6:46 AM CST 5:30 PM CST
Nautical Twilight 6:14 AM CST 6:02 PM CST
Astronomical Twilight 5:43 AM CST 6:33 PM CST
Moon 3:41 PM CST (12/8) 5:28 AM CST (12/8)
Length of Visible Light 10h 44m
Length of Day
9h 47m
Waxing Gibbous, 97% of the Moon is Illuminated
Dec 8
Waxing Gibbous
Dec 10
Full
Dec 17
Last Quarter
Dec 24
New
Jan 1
First Quarter

Hourly Weather History & Observations

Time (CST) Temp. Windchill Dew Point Humidity Pressure Visibility Wind Dir Wind Speed Gust Speed Precip Events Conditions
12:53 AM 24.1 °F - 19.9 °F 84% 30.27 in 10.0 mi Calm Calm - N/A   Clear
1:53 AM 24.1 °F - 19.9 °F 84% 30.26 in 10.0 mi Calm Calm - N/A   Clear
2:53 AM 23.0 °F - 21.0 °F 92% 30.27 in 10.0 mi Calm Calm - N/A   Clear
3:53 AM 21.9 °F - 21.0 °F 96% 30.27 in 10.0 mi Calm Calm - N/A   Clear
4:53 AM 21.9 °F - 19.9 °F 92% 30.27 in 10.0 mi Calm Calm - N/A   Clear
5:53 AM 21.9 °F - 19.9 °F 92% 30.30 in 10.0 mi Calm Calm - N/A   Clear
6:53 AM 21.9 °F - 19.9 °F 92% 30.30 in 10.0 mi Calm Calm - N/A   Clear
7:53 AM 21.9 °F - 21.0 °F 96% 30.32 in 10.0 mi Calm Calm - N/A   Clear
8:53 AM 27.0 °F - 24.1 °F 89% 30.31 in 10.0 mi Calm Calm - N/A   Clear
9:53 AM 36.0 °F 29.6 °F 28.0 °F 73% 30.31 in 10.0 mi South 8.1 mph - N/A   Clear
10:53 AM 39.9 °F 35.1 °F 26.1 °F 58% 30.30 in 10.0 mi South 6.9 mph - N/A   Clear
11:53 AM 44.1 °F 38.6 °F 24.1 °F 45% 30.26 in 10.0 mi South 10.4 mph - N/A   Clear
12:53 PM 46.0 °F 41.9 °F 25.0 °F 44% 30.23 in 10.0 mi SSW 8.1 mph - N/A   Clear
1:53 PM 46.0 °F 41.0 °F 24.1 °F 42% 30.19 in 10.0 mi South 10.4 mph - N/A   Clear
2:53 PM 44.6 °F 39.2 °F 24.8 °F 46% 30.15 in 10.0 mi SSW 10.4 mph - N/A   Clear
3:53 PM 42.1 °F 37.1 °F 24.1 °F 49% 30.19 in 10.0 mi South 8.1 mph - N/A   Clear
4:53 PM 39.9 °F 35.8 °F 23.0 °F 51% 30.19 in 10.0 mi SSW 5.8 mph - N/A   Clear
5:53 PM 37.9 °F 35.5 °F 23.0 °F 55% 30.18 in 10.0 mi SE 3.5 mph - N/A   Clear
6:53 PM 28.9 °F - 24.1 °F 82% 30.20 in 10.0 mi Calm Calm - N/A   Clear
7:53 PM 28.0 °F - 24.1 °F 85% 30.21 in 10.0 mi Calm Calm - N/A   Clear
8:53 PM 27.0 °F - 23.0 °F 85% 30.22 in 10.0 mi Calm Calm - N/A   Clear
9:53 PM 25.0 °F - 23.0 °F 92% 30.21 in 10.0 mi Calm Calm - N/A   Clear
10:53 PM 25.0 °F - 23.0 °F 92% 30.23 in 10.0 mi Calm Calm - N/A   Clear
11:53 PM 24.1 °F - 21.9 °F 91% 30.24 in 10.0 mi Calm Calm - N/A   Clear